Location: Concepci�n
(32.5333°N, 117.1167°W)
Time: 19:57:50
(UTC+00:00)

CZ-2C R/B - Pass Details

Date: 08 May 2021
Orbit: 502 x 565 km, 97.7° (Epoch: 18 June)

Event Time Altitude Azimuth Distance (km) Brightness Sun altitude
Rises 12:09:11 0° 358° (N) 2,732 6.7 -9.6°
Reaches altitude 10° 12:11:30 10° 347° (NNW) 1,843 5.7 -9.2°
Maximum altitude 12:14:57 28° 287° (WNW) 1,057 3.9 -8.6°
Drops below altitude 10° 12:18:24 10° 228° (SW) 1,850 4.9 -7.9°
Enters shadow 12:18:42 - 226° (SW) 1,956 5.0 -7.9°
